Location: Athabasca
(54.7194°N, 113.2858°W)
Time: 09:54:08
(UTC+00:00)

PRISM - Pass Details

Date: 06 December 2023
Orbit: 515 x 532 km, 98.2° (Epoch: 04 March)

Event Time Altitude Azimuth Distance (km) Brightness Sun altitude
Exits shadow 03:01:18 10° 330° (NNW) 1,815 ? -32.1°
Drops below altitude 10° 03:01:18 10° 330° (NNW) 1,818 ? -32.1°
Sets 03:03:33 0° 339° (NNW) 2,709 ? -32.4°
